This is the latest recevied weather packets stored in our database for station/object KG4LKY-5. If no packets are shown the sender has not sent any weather packets the latest 10 day(s).
| Time | Temp. | Humidity | Pressure | Rain* | Wind** | Luminosity | Snow |
|---|---|---|---|---|---|---|---|
| 1778085867 | 14.44° C | 100% | 1012.5 hPa | 34.8 mm | - | - | - |
| 1778085567 | 14.44° C | 100% | 1012.4 hPa | 34.8 mm | - | - | - |
| 1778085266 | 15° C | 100% | 1012.4 hPa | 34.8 mm | - | - | - |
| 1778084966 | 14.44° C | 100% | 1012.2 hPa | 34.8 mm | - | - | - |
| 1778084666 | 15.56° C | 100% | 1012.2 hPa | 34.8 mm | - | - | - |
| 1778084366 | 15.56° C | 100% | 1012.1 hPa | 34.8 mm | - | - | - |
| 1778084065 | 15° C | 100% | 1012.3 hPa | 34.8 mm | - | - | - |
| 1778083765 | 16.11° C | 100% | 1012.3 hPa | 34.8 mm | - | - | - |
| 1778083465 | 16.67° C | 100% | 1012.1 hPa | 34.8 mm | - | - | - |
| 1778083165 | 16.11° C | 100% | 1012.1 hPa | 34.8 mm | - | - | - |
| 1778081962 | 16.11° C | 100% | 1011.9 hPa | 34.8 mm | - | - | - |
| 1778081662 | 16.11° C | 100% | 1011.9 hPa | 34.8 mm | - | - | - |
| 1778081061 | 16.11° C | 100% | 1011.8 hPa | 34.8 mm | - | - | - |
| 1778080460 | 17.22° C | 100% | 1011.7 hPa | 34.8 mm | - | - | - |
| 1778079858 | 16.67° C | 100% | 1011.5 hPa | 34.8 mm | - | - | - |
| 1778079258 | 16.67° C | 100% | 1011.4 hPa | 34.8 mm | - | - | - |
| 1778078657 | 16.67° C | 100% | 1011.5 hPa | 34.8 mm | - | - | - |
| 1778078057 | 16.67° C | 100% | 1011.4 hPa | 34.8 mm | - | - | - |
| 1778077455 | 16.67° C | 100% | 1011.2 hPa | 34.54 mm | - | - | - |
| 1778077154 | 16.67° C | 100% | 1011.1 hPa | 34.54 mm | - | - | - |
| 1778076554 | 16.67° C | 100% | 1011.1 hPa | 34.54 mm | - | - | - |
| 1778076254 | 16.11° C | 100% | 1011 hPa | 34.54 mm | - | - | - |
| 1778075953 | 16.11° C | 100% | 1011 hPa | 34.54 mm | - | - | - |
| 1778075653 | 15.56° C | 100% | 1011 hPa | 33.02 mm | - | - | - |
| 1778075353 | 15.56° C | 100% | 1011.1 hPa | 32.51 mm | - | - | - |
* Rain since midnight (hover to see other rain measurements)
** Current wind speed in m/s (hover to see current wind gust speed)